Omak, WA

8:23 AM PDT on April 27, 2017 (GMT -0700)
Omak

Weather History for KOMK - June, 2013

Change the Weather History Date:

Monday, June 17, 2013

  Actual Average Record
Temperature  
Mean Temperature 72 °F 66 °F  
Max Temperature 84 °F 80 °F 99 °F (1961)
Min Temperature 60 °F 52 °F 34 °F (1960)
Degree Days  
Heating Degree Days 0 2  
Month to date heating degree days 37 49  
Since 1 June heating degree days 37 49  
Since 1 July heating degree days 6054 6322  
Cooling Degree Days 7 3  
Month to date cooling degree days 29 35  
Year to date cooling degree days 52 58  
Since 1 June cooling degree days 29 35  
Growing Degree Days 22 (Base 50)    
Moisture  
Dew Point 47 °F    
Average Humidity 47    
Maximum Humidity 72    
Minimum Humidity 22    
Precipitation  
Precipitation 0.02 in 0.05 in 0.55 in (1979)
Month to date precipitation 0.07 0.68  
Year to date precipitation 4.16 7.43  
Sea Level Pressure  
Sea Level Pressure 29.89 in    
Wind  
Wind Speed 10 mph (SE)    
Max Wind Speed 22 mph    
Max Gust Speed 26 mph    
Visibility 10 miles    
Events Rain    
T = Trace of Precipitation, MM = Missing Value Source: NWS Daily Summary

Daily Weather History Graph

Daily Weather History Graph

Search for Another Location

Airport or City:

Trip Planner

Search our weather history database for the weather conditions in past years. The results will help you decide how hot, cold, wet, or windy it might be!

Date:

Astronomy

Jun. 17, 2013 Rise Set
Actual Time 4:55 AM PDT 9:02 PM PDT
Civil Twilight 4:13 AM PDT 9:44 PM PDT
Nautical Twilight 3:14 AM PDT 10:43 PM PDT
Astronomical Twilight 1:20 AM PDT 12:39 AM PDT
Moon 2:22 PM PDT (6/17) 1:01 AM PDT (6/17)
Length of Visible Light 17h 30m
Length of Day
16h 06m
First Quarter, 61% of the Moon is Illuminated
Jun 17
First Quarter
Jun 23
Full
Jun 29
Last Quarter
Jul 8
New
Jul 15
First Quarter

Hourly Weather History & Observations

Time (PDT) Temp. Dew Point Humidity Pressure Visibility Wind Dir Wind Speed Gust Speed Precip Events Conditions
12:53 AM 70.0 °F 45.0 °F 41% 29.92 in 10.0 mi NW 10.4 mph - N/A   Partly Cloudy
1:53 AM 68.0 °F 46.0 °F 45% 29.93 in 10.0 mi NNW 9.2 mph - N/A   Mostly Cloudy
2:53 AM 68.0 °F 48.0 °F 49% 29.95 in 10.0 mi North 13.8 mph 20.7 mph 0.00 in Rain Light Rain
3:06 AM 62.6 °F 51.8 °F 68% 29.99 in 10.0 mi North 10.4 mph 19.6 mph 0.01 in Rain Light Rain
3:53 AM 63.0 °F 51.1 °F 65% 29.97 in 10.0 mi North 10.4 mph - 0.01 in Rain Light Rain
4:53 AM 61.0 °F 52.0 °F 72% 29.96 in 10.0 mi NW 9.2 mph - 0.01 in   Scattered Clouds
5:53 AM 61.0 °F 51.1 °F 70% 29.95 in 10.0 mi NW 9.2 mph - N/A   Clear
6:53 AM 62.1 °F 52.0 °F 70% 29.95 in 10.0 mi NNW 12.7 mph - N/A   Clear
7:53 AM 62.1 °F 53.1 °F 72% 29.96 in 10.0 mi North 8.1 mph - N/A   Clear
8:53 AM 64.9 °F 53.1 °F 65% 29.96 in 10.0 mi North 10.4 mph - N/A   Clear
9:53 AM 69.1 °F 53.1 °F 57% 29.95 in 10.0 mi North 9.2 mph - N/A   Clear
10:53 AM 71.1 °F 52.0 °F 51% 29.94 in 10.0 mi ESE 4.6 mph - N/A   Clear
11:53 AM 75.0 °F 51.1 °F 43% 29.93 in 10.0 mi Variable 4.6 mph - N/A   Clear
12:53 PM 78.1 °F 50.0 °F 37% 29.91 in 10.0 mi SSE 16.1 mph - N/A   Clear
1:53 PM 81.0 °F 44.1 °F 27% 29.89 in 10.0 mi South 11.5 mph - N/A   Partly Cloudy
2:53 PM 80.1 °F 43.0 °F 27% 29.86 in 10.0 mi SSE 12.7 mph - N/A   Mostly Cloudy
3:53 PM 82.0 °F 39.9 °F 22% 29.85 in 10.0 mi SSE 16.1 mph 25.3 mph N/A   Clear
4:53 PM 82.9 °F 39.0 °F 21% 29.83 in 10.0 mi SE 16.1 mph 26.5 mph N/A   Clear
5:53 PM 82.0 °F 39.9 °F 22% 29.81 in 10.0 mi SE 16.1 mph 23.0 mph N/A   Clear
6:53 PM 82.0 °F 39.9 °F 22% 29.78 in 10.0 mi South 8.1 mph - N/A   Clear
7:53 PM 80.1 °F 45.0 °F 29% 29.78 in 10.0 mi SSW 4.6 mph - N/A   Clear
8:53 PM 73.9 °F 45.0 °F 35% 29.79 in 10.0 mi South 6.9 mph - N/A   Clear
9:53 PM 73.0 °F 42.1 °F 33% 29.80 in 10.0 mi SSE 5.8 mph - N/A   Clear
10:53 PM 73.9 °F 41.0 °F 30% 29.80 in 10.0 mi South 9.2 mph 20.7 mph N/A   Clear
11:53 PM 72.0 °F 44.1 °F 37% 29.83 in 10.0 mi South 9.2 mph - N/A   Partly Cloudy